Flag for Netherlands Weather past 2 weeks in Zoetermeer, Netherlands

Now
61 °F

Passing clouds.


Feels Like: 61 °F
Forecast: 56 / 64 °F
Wind: 6 mph from North

Location: Rotterdam Zestienhoven Airport

Current Time: Sep 1, 2015 at 8:01:34 AM

Latest Report: Sep 1, 2015 at 7:25 AM


Visibility: N/A

Pressure: 29.89 "Hg

Humidity: 88%

Dew point: 57 °F

Location of ZoetermeerLocation

Historic Weather in Zoetermeer — Graph

°F

Zoetermeer temperature yesterday

Maximum temperature yesterday: 77 °F (at 1:25 PM)
Minimum temperature yesterday: 63 °F (at 11:55 PM)
Average temperature yesterday: 69 °F

Past Weeks' High & Low Weather Summary

 TemperatureHumidityPressure
High81 °F (Aug 21, 4:55 PM)100% (Aug 17, 9:55 AM)30.21 "Hg (Aug 17, 9:55 AM)
Low52 °F (Aug 29, 6:25 AM)39% (Aug 22, 4:55 PM)29.42 "Hg (Aug 24, 5:25 PM)
Average65 °F80%29.92 "Hg
* Reported Aug 17 6:25 AM — Sep 1 6:55 AM, Zoetermeer, Weather by CustomWeather, © 2015

Note: Actual official high and low records may vary slightly from our data, if they occured in-between our weather recording intervals... More about our weather records

Advertising

Zoetermeer weather history for previous 24 hours

 ConditionsComfort  
Time TempWeatherWind HumidityBarometerVisibility
6:55 AM
Tue, Sep 1
61 °FMostly cloudy.5 mph94%29.86 "HgN/A
5:25 AM61 °FMostly cloudy.8 mph88%29.86 "HgN/A
4:55 AM61 °FPartly cloudy.8 mph94%29.86 "HgN/A
4:25 AM61 °FMostly cloudy.7 mph94%29.86 "HgN/A
3:55 AM61 °FMostly cloudy.8 mph94%29.86 "HgN/A
3:25 AM63 °FOvercast.8 mph88%29.86 "HgN/A
2:55 AM63 °FPartly cloudy.9 mph88%29.86 "HgN/A
2:25 AM63 °FPartly cloudy.10 mph88%29.86 "HgN/A
1:55 AM63 °FMostly cloudy.8 mph94%29.83 "HgN/A
1:25 AM63 °FPartly cloudy.10 mph94%29.83 "HgN/A
12:55 AM63 °FPartly cloudy.12 mph94%29.83 "Hg5 mi
11:55 PM
Mon, Aug 31
63 °FMostly cloudy.7 mph94%29.80 "HgN/A
11:25 PM64 °FMostly cloudy.10 mph94%29.80 "HgN/A
10:55 PM64 °FOvercast.10 mph94%29.80 "HgN/A
10:25 PM64 °FPartly cloudy.8 mph94%29.77 "HgN/A
9:55 PM66 °FMostly cloudy.12 mph94%29.77 "HgN/A
9:25 PM66 °FCloudy.12 mph94%29.77 "HgN/A
8:55 PM66 °FFog.10 mph100%29.77 "Hg3 mi
8:25 PM68 °FMore clouds than sun.13 mph94%29.77 "Hg5 mi
7:55 PM68 °FPartly sunny.9 mph94%29.77 "Hg6 mi
7:25 PM68 °FMostly cloudy.10 mph94%29.77 "HgN/A
6:55 PM68 °FDrizzle. Partly sunny.12 mph94%29.77 "HgN/A
6:25 PM68 °FRain. Partly sunny.6 mph94%29.77 "Hg3 mi
5:55 PM68 °FRain. Partly sunny.5 mph100%29.77 "Hg2 mi
5:25 PM70 °FRain showers. Passing clouds.6 mph94%29.77 "Hg3 mi
4:55 PM70 °FThunderstorms. Partly sunny.1 mph94%29.77 "Hg1 mi
4:25 PM70 °FThunderstorms. Passing clouds.7 mph94%29.77 "Hg5 mi
3:55 PM72 °FSprinkles. Broken clouds.8 mph88%29.80 "HgN/A
3:25 PM75 °FLight rain. Overcast.10 mph78%29.77 "HgN/A
2:55 PM77 °FPartly sunny.8 mph74%29.77 "HgN/A
2:25 PM77 °FOvercast.5 mph74%29.77 "HgN/A
1:55 PM77 °FPassing clouds.6 mph74%29.77 "HgN/A
1:25 PM77 °FScattered clouds.8 mph79%29.77 "HgN/A
12:55 PM75 °FClear.7 mph78%29.77 "HgN/A
12:25 PM75 °FClear.8 mph78%29.80 "HgN/A
11:55 AM73 °FClear.10 mph83%29.80 "HgN/A
11:25 AM72 °FClear.10 mph83%29.80 "HgN/A
10:55 AM72 °FClear.9 mph83%29.83 "HgN/A
10:25 AM70 °FClear.9 mph88%29.83 "HgN/A
9:55 AM68 °FClear.7 mph88%29.83 "HgN/A
9:25 AM66 °FClear.5 mph88%29.86 "HgN/A
8:55 AM66 °FClear.3 mph94%29.86 "HgN/A
8:25 AM66 °FClear.7 mph94%29.86 "HgN/A
Weather by CustomWeather, © 2015

See weather overviewHow to use our weather pages